Dewpoint
51 51 50 50 50 50 50 51 50 50 49 47 45 45 37 35 34 36 38 39 38 34 29 31 30 28 29 31 30 31 30 28 28 26 26 25 27 27 27 27 26 28 28 28 26 28 29 29 29 30 29 28 28 28 27 28 32 38 37 39 41 42 36 30 23 28 24 19 17 17 19 16 13 14 14 12 10 9 9 11 20 14 21 17 18 18 17
50 50 50 50 50 50 50 50 50 50 49 48 47 41 37 36 36 37 39 39 36 31 27 27 28 30 30 30 28 30 30 30 30 27 27 27 24 24 25 25 26 27 28 28 27 27 27 30 27 27 28 29 30 28 28 28 29 36 38 36 32 31 34 27 21 17 18 16 19 16 21 18 17 13 14 13 12 10 12 20 26 17 16 14 14 11 15
50 50 50 50 50 51 50 51 50 50 50 50 46 40 40 39 39 39 39 39 34 30 31 30 29 30 30 29 26 28 30 32 32 30 28 27 26 24 24 25 25 26 26 28 27 28 28 30 29 25 25 27 31 29 29 28 28 36 38 40 36 38 35 32 22 17 15 14 13 15 17 20 20 19 15 15 12 11 14 10 21 16 25 22 17 14 27
50 50 50 50 50 50 51 50 50 50 50 49 46 43 39 35 29 31 32 33 35 33 33 32 32 30 30 28 25 27 26 31 34 33 29 30 29 26 26 26 27 27 28 26 26 27 28 27 28 27 25 26 28 29 29 28 28 40 39 38 35 37 38 36 31 29 27 30 32 33 33 31 25 24 23 15 15 12 11 17 18 13 24 19 20 24 27
50 50 50 50 50 50 50 50 50 50 49 48 44 41 40 39 31 31 30 32 34 31 31 31 33 31 31 27 28 27 27 29 33 35 31 32 30 28 27 27 26 25 26 27 25 28 26 28 29 26 25 28 29 30 29 28 37 40 34 35 36 37 31 34 34 35 35 31 30 29 32 29 29 29 29 23 15 15 13 13 14 27 20 16 24 32 19
50 50 50 50 50 50 50 50 50 50 50 48 45 38 39 32 33 35 37 32 28 30 29 32 33 33 31 30 31 29 27 28 29 32 34 35 37 29 26 28 28 27 25 27 27 30 28 29 27 27 29 29 28 28 29 29 36 35 26 32 35 32 31 33 30 28 28 28 29 30 30 30 30 30 29 28 22 16 14 16 25 23 16 15 24 30 26
50 50 50 50 50 50 50 50 50 50 49 48 45 38 38 37 37 36 40 32 33 33 33 34 33 32 31 33 31 28 29 29 30 31 32 31 33 34 30 29 29 28 27 28 29 31 25 26 31 28 29 29 30 27 29 29 30 29 27 27 34 34 32 34 30 27 28 28 29 30 30 29 28 28 29 27 24 19 15 15 17 19 23 24 22 31 24
50 50 50 50 50 50 50 50 50 50 49 49 44 42 37 35 35 34 36 36 35 34 34 33 33 31 33 31 31 31 30 29 29 30 30 29 29 30 29 30 30 29 29 30 27 29 31 31 28 32 30 28 31 31 30 29 29 29 28 28 29 27 28 31 28 29 27 27 31 30 27 27 26 28 29 29 27 21 17 14 15 26 21 20 22 32 29
50 50 49 49 50 50 50 50 50 49 48 45 43 41 41 40 43 42 36 33 33 36 35 33 32 31 31 30 29 31 28 29 30 30 31 30 29 30 29 30 30 30 30 30 28 28 30 32 31 31 30 29 32 30 30 29 28 29 29 30 32 29 29 32 32 26 24 27 27 26 26 26 28 29 30 29 27 25 20 18 16 21 23 24 20 21 25
50 50 49 49 49 50 50 50 50 49 48 46 44 39 43 42 46 43 39 32 34 32 33 33 32 28 31 33 30 30 29 30 31 29 31 30 31 31 31 32 31 30 30 30 30 30 32 32 32 32 32 31 31 31 30 29 30 32 31 32 30 30 30 25 29 26 27 25 26 25 26 28 24 23 23 26 26 25 20 17 24 20 18 20 19 17 23
50 49 49 49 49 49 50 50 49 49 47 45 43 42 42 41 40 41 41 32 32 33 32 31 31 31 30 30 30 31 31 32 31 30 30 32 31 32 32 32 31 30 31 32 32 33 33 33 33 34 33 32 31 30 31 32 31 30 30 33 33 32 29 27 31 25 27 24 25 27 28 23 21 33 34 40 29 24 23 20 17 18 18 16 18 20 24
50 49 49 49 49 49 49 49 49 50 48 45 46 44 44 45 44 41 37 31 30 32 31 29 30 31 30 31 32 32 32 32 32 34 32 32 32 32 31 32 33 29 34 33 33 33 34 35 35 35 34 33 32 31 31 30 30 34 32 30 31 32 34 31 31 27 26 25 28 29 23 22 36 28 43 47 47 38 24 22 19 16 18 18 20 23 26
50 50 49 49 49 49 49 49 49 48 49 47 47 43 45 48 43 41 39 35 31 31 29 30 31 32 32 32 32 32 33 33 33 33 32 31 31 31 32 31 31 33 34 32 33 34 35 33 34 34 32 33 32 31 31 30 30 31 32 32 30 29 28 29 32 30 30 28 28 23 21 32 28 30 47 49 47 50 46 28 23 20 17 23 21 21 23
50 50 49 49 49 49 49 50 49 49 49 49 47 46 46 47 42 41 39 34 33 33 35 33 32 32 32 33 33 33 33 32 32 32 31 32 32 32 33 33 34 34 33 33 34 37 33 32 29 30 29 30 29 28 30 31 31 30 30 31 32 30 30 30 24 30 23 26 25 24 29 27 32 43 46 48 48 48 48 42 39 37 48 35 26 24 26
49 50 50 49 49 49 49 49 49 49 49 50 48 47 47 46 46 43 43 38 32 34 34 30 31 32 32 32 32 32 32 32 32 32 33 33 32 33 33 34 34 33 33 34 36 37 34 33 28 27 26 22 18 19 29 30 31 31 31 31 31 31 27 28 19 25 25 23 23 25 27 26 32 45 49 50 50 51 50 47 43 44 54 55 47 34 27
50 50 50 50 49 49 48 48 49 49 49 49 48 47 47 48 47 46 43 39 36 30 32 33 34 33 33 33 34 32 32 32 32 32 31 32 32 33 34 34 34 34 35 41 37 34 33 30 26 28 25 24 25 26 23 26 25 30 31 31 31 31 29 29 17 26 28 25 23 23 25 29 36 47 49 50 51 52 52 44 40 43 56 58 56 51 42
50 50 50 50 50 49 49 48 48 49 49 50 47 47 46 48 47 45 42 40 38 33 34 35 35 35 34 33 34 33 35 32 32 30 30 30 32 33 33 34 36 36 39 38 37 36 32 31 32 30 30 32 27 25 25 29 30 31 31 31 29 30 29 29 26 21 28 26 24 22 31 30 43 49 49 50 51 52 45 33 32 50 55 57 58 56 49
50 50 50 50 50 50 49 49 48 48 49 50 48 46 46 48 47 47 43 40 36 35 36 37 35 34 34 34 33 34 35 34 34 35 33 33 33 32 34 35 33 37 42 35 36 33 30 29 28 28 27 32 31 32 24 28 29 30 31 29 29 29 29 28 25 22 24 28 23 27 30 38 49 49 50 51 52 42 34 31 39 52 55 58 59 59 59
51 50 50 50 50 50 50 49 49 48 48 49 49 48 47 48 47 47 44 41 39 33 37 37 39 37 37 39 36 36 36 34 34 32 32 31 32 36 35 33 35 34 38 35 36 32 31 30 35 29 29 31 32 29 33 30 28 32 36 34 33 29 30 32 28 24 23 27 22 23 31 38 50 50 51 51 48 35 32 45 52 55 55 55 57 58 59
50 50 50 50 50 50 50 50 49 49 48 49 48 45 45 46 47 46 44 39 40 37 37 37 37 36 37 36 35 34 34 36 35 34 33 30 36 35 32 27 38 35 35 36 30 36 31 29 31 34 29 32 33 36 32 31 33 33 33 34 35 38 31 30 27 29 35 38 31 32 26 36 51 51 51 51 46 48 51 51 52 53 52 53 55 56 57
50 50 50 50 51 50 50 50 50 49 49 48 48 46 45 47 47 47 46 43 40 36 36 39 39 38 37 37 37 36 36 34 34 34 34 34 37 35 27 27 31 32 30 32 27 28 32 31 33 32 36 34 34 34 28 30 31 32 34 35 36 39 36 37 37 35 32 35 31 31 39 48 51 51 48 52 54 55 54 52 50 52 52 52 53 53 54
51 51 51 51 51 51 51 51 50 50 49 49 48 48 45 46 47 47 47 47 41 39 38 40 42 41 41 40 39 39 38 37 37 36 35 34 36 34 33 34 33 33 35 38 33 33 36 36 38 32 31 32 36 32 34 30 26 31 38 41 31 42 39 43 37 43 41 38 41 50 51 52 53 53 54 56 55 56 56 53 51 50 50 51 51 51 52
51 52 52 52 51 51 51 51 51 50 50 50 49 47 44 45 45 48 48 43 43 45 44 43 42 42 43 43 43 42 40 40 39 38 37 36 35 35 34 34 34 37 36 37 33 32 33 34 32 36 34 35 32 31 33 33 30 33 32 40 39 39 39 42 42 41 47 47 51 53 53 52 52 54 55 56 55 55 55 52 50 50 51 52 51 51 51
52 52 52 52 52 52 52 52 52 51 51 51 49 47 46 46 45 46 46 45 42 38 38 38 37 36 38 38 40 42 44 44 43 40 40 39 36 35 36 36 35 35 35 37 41 37 37 37 37 38 31 35 38 31 28 28 32 36 35 34 37 38 40 42 41 43 42 39 51 52 51 53 52 54 55 56 56 56 56 53 53 53 52 52 52 53 52
51 51 52 52 52 52 52 52 52 52 51 51 50 49 49 47 48 47 43 38 38 37 32 33 35 36 36 37 37 37 40 43 45 44 42 40 38 36 35 36 36 34 34 37 45 42 42 35 37 36 31 37 36 30 36 32 31 38 32 32 34 33 43 37 38 40 40 42 50 53 53 54 55 54 53 53 55 56 55 55 55 54 55 53 53 54 53
51 52 52 52 52 52 52 52 52 52 52 52 50 48 46 45 47 47 46 45 43 40 33 32 33 40 41 38 37 39 38 39 40 43 44 41 40 38 37 38 37 38 37 43 42 38 37 37 37 37 34 34 40 34 33 37 36 39 35 33 35 36 38 34 38 37 42 42 50 52 52 52 52 53 54 56 56 56 55 55 54 53 53 53 53 53 54
52 52 52 52 52 52 52 52 52 52 52 52 51 49 48 47 47 47 44 43 39 35 36 33 35 35 37 37 38 39 40 39 38 37 39 42 41 40 39 38 37 37 37 36 39 39 40 38 37 34 36 36 41 38 38 37 36 34 34 36 38 39 36 39 39 37 37 39 46 50 45 45 51 53 54 53 55 55 53 54 54 53 53 54 54 54 54
52 52 52 52 52 52 52 52 52 52 52 52 51 50 49 48 47 47 47 46 41 35 34 34 34 35 37 36 38 39 40 42 40 39 38 38 40 40 39 39 38 37 37 36 35 36 37 35 34 37 38 40 39 37 41 41 40 35 35 36 40 39 39 41 38 38 39 45 48 50 50 50 51 53 55 55 55 55 53 53 54 54 55 55 54 54 52
52 52 52 52 52 52 52 52 52 52 52 51 51 49 48 49 49 49 48 48 47 42 40 39 39 37 34 35 38 37 37 38 39 39 38 38 38 39 40 39 38 38 37 37 36 34 34 35 37 37 38 44 39 36 38 32 33 32 34 39 43 43 43 44 43 43 44 45 46 50 50 49 52 54 54 54 55 54 53 54 54 55 55 55 55 54 53
52 52 52 52 52 52 52 52 52 52 52 51 49 46 42 43 49 49 49 49 47 44 38 34 32 33 40 40 37 37 38 38 37 37 37 37 37 37 38 39 39 40 38 36 36 34 34 34 35 37 40 44 38 37 34 35 33 35 40 42 44 45 46 48 48 46 45 48 51 52 52 53 53 53 54 55 55 54 53 54 54 54 55 55 54 54 54
52 51 51 52 52 52 52 52 52 52 51 49 46 41 38 35 42 50 50 50 49 44 40 38 34 38 38 39 38 37 39 40 39 38 37 36 36 36 36 37 37 39 37 36 35 34 35 35 35 40 43 44 42 37 35 35 33 34 38 41 45 45 46 47 48 49 50 50 51 52 53 54 54 53 53 54 55 55 55 55 55 55 55 55 54 55 55
52 51 51 51 52 52 52 52 51 51 51 48 44 41 42 44 47 50 50 49 48 43 39 33 34 36 35 37 42 42 40 40 41 42 44 45 39 38 37 35 35 36 38 35 35 35 34 34 32 34 38 44 43 39 38 36 34 33 39 42 44 44 46 46 47 50 51 52 52 52 52 52 52 50 50 53 54 55 54 54 55 56 56 56 56 56 55
51 51 51 51 52 52 52 52 52 51 50 49 49 50 50 49 50 50 49 49 46 43 43 37 32 35 34 35 38 38 43 46 46 45 42 45 42 42 39 40 37 36 40 37 33 32 35 34 34 33 38 45 42 39 37 35 35 37 40 43 43 44 46 49 50 51 50 52 53 50 50 51 52 53 53 54 54 54 54 53 54 53 53 53 53 54 54
51 51 51 51 51 51 51 51 51 51 51 49 46 47 50 49 50 50 50 48 45 45 43 36 33 33 33 37 35 41 47 41 39 41 37 44 44 40 37 40 38 34 35 35 36 35 38 41 40 40 44 42 44 40 35 36 38 39 42 43 45 47 48 48 49 50 50 53 54 55 54 53 53 53 53 53 53 54 54 53 53 52 52 52 52 52 52
51 51 51 51 51 52 51 51 50 49 46 47 47 49 50 50 50 50 50 47 39 37 37 37 37 32 32 34 34 37 47 45 40 42 39 41 47 42 42 37 37 34 37 36 36 37 37 37 45 39 38 42 41 36 36 37 38 41 43 43 43 44 46 47 49 51 52 54 54 54 53 53 51 51 51 51 51 52 52 52 52 52 51 51 51 52 52
51 51 51 52 51 51 51 50 49 47 45 45 47 50 51 51 51 51 50 48 44 38 35 35 36 33 34 30 31 38 44 42 43 45 43 43 42 46 45 41 34 38 43 33 35 39 39 44 41 37 42 38 36 37 39 42 41 41 41 42 43 44 46 48 50 51 53 53 53 53 53 52 51 50 50 51 51 52 52 51 52 52 51 51 51 52 52
51 51 51 51 51 49 46 46 49 48 46 48 53 53 53 52 52 51 49 47 47 47 39 36 33 34 37 36 40 40 42 37 42 42 43 42 40 44 42 37 35 41 40 38 39 39 42 46 42 38 38 36 37 43 43 42 42 43 43 43 45 45 48 50 51 52 52 52 52 52 51 51 51 51 50 51 52 52 52 52 52 52 51 52 53 53 52
51 51 48 47 44 42 41 44 47 51 52 51 53 50 48 48 42 44 44 41 45 45 42 40 35 37 41 38 33 41 42 40 43 40 42 44 40 38 43 40 40 39 32 35 40 46 44 43 40 38 39 42 43 43 43 44 44 46 45 45 48 51 52 52 52 52 51 51 51 51 51 50 51 51 50 51 52 52 52 53 53 54 54 54 54 54 55
49 48 44 43 41 41 41 44 50 51 51 52 52 47 44 45 42 38 38 39 41 38 42 39 35 39 38 36 38 43 41 41 39 42 37 43 40 38 42 37 42 41 34 37 41 46 38 37 38 37 35 40 41 43 48 50 51 51 51 52 52 52 53 53 53 52 51 50 51 51 51 50 51 51 52 52 53 54 54 54 55 55 55 55 56 57 57
45 45 43 42 41 43 49 50 51 49 48 45 47 44 40 44 39 35 41 35 33 38 39 33 40 39 39 37 37 38 46 41 36 38 41 43 47 39 41 39 40 38 32 33 37 44 37 32 35 34 34 40 42 46 48 50 50 51 52 52 53 53 53 53 52 53 54 54 54 54 54 53 54 53 54 54 54 54 55 56 56 57 57 57 57 57 56
46 45 43 41 44 47 49 49 49 47 46 43 43 43 41 36 41 42 40 34 34 36 41 40 42 40 42 42 41 38 46 47 47 47 44 38 47 44 40 34 42 35 32 31 40 41 36 33 33 32 36 41 44 47 49 50 50 51 52 52 53 53 53 53 53 53 53 53 54 55 55 56 56 55 55 55 55 55 55 56 56 56 56 56 56 56 56
48 48 48 49 49 49 49 48 46 42 41 44 39 34 36 38 42 41 41 34 37 41 42 42 39 41 42 42 41 43 44 49 48 46 42 36 44 39 36 37 37 33 32 38 41 36 34 32 33 34 40 44 46 47 48 48 50 50 51 52 53 53 53 53 53 54 54 53 52 53 54 54 54 55 55 55 55 55 56 56 56 56 56 56 56 56 56
50 50 50 47 46 44 45 36 39 41 35 35 34 33 36 34 37 39 40 43 45 43 45 47 46 49 50 49 46 47 46 49 45 45 41 38 42 41 35 33 34 32 36 42 38 33 33 32 32 36 42 45 47 48 49 50 50 51 51 53 53 53 53 52 53 53 54 54 53 53 54 54 54 55 55 55 55 55 55 56 56 56 55 55 55 55 55
50 49 47 44 37 38 41 34 40 41 36 35 34 33 36 35 39 42 40 42 45 45 47 45 46 46 43 48 46 46 47 48 49 46 43 44 40 34 35 32 33 41 43 36 34 32 32 36 41 43 45 46 48 48 49 49 49 49 49 51 53 53 52 52 52 52 52 53 54 54 55 54 54 54 55 54 55 54 54 55 56 56 56 55 54 54 54
40 36 35 33 34 36 37 34 37 35 34 37 38 38 39 36 39 41 40 46 47 44 47 48 47 47 46 48 49 48 47 44 48 44 39 41 38 39 36 34 41 41 35 32 33 34 34 37 43 45 46 46 48 48 49 49 49 49 48 49 49 50 50 51 51 51 51 52 52 52 52 53 53 54 54 55 55 55 55 55 56 55 54 53 53 52 52
39 37 35 32 33 35 36 35 36 35 39 41 41 42 41 42 43 43 46 49 46 46 46 47 48 48 45 47 44 43 46 46 43 42 43 40 37 35 40 44 41 35 34 33 33 34 37 41 44 46 47 47 47 48 47 48 48 48 48 47 48 49 49 49 49 49 50 50 51 51 51 51 51 52 52 52 52 53 53 53 53 52 52 52 52 53 53
35 39 33 33 32 33 38 36 38 40 41 42 42 43 43 44 46 46 48 48 46 47 48 47 47 47 43 44 45 44 44 44 40 40 44 38 38 39 42 38 32 33 32 33 34 36 40 43 46 47 47 47 46 46 46 45 46 45 46 46 46 47 48 48 48 49 49 49 50 50 50 50 50 50 51 51 51 51 52 50 50 48 47 47 47 47 48
33 35 32 34 33 34 37 39 41 42 43 43 42 43 44 45 44 44 47 48 48 48 46 46 44 44 43 46 46 40 41 41 39 38 42 39 40 35 33 35 33 36 38 36 38 42 43 45 46 47 46 46 46 45 45 45 44 44 44 44 44 44 45 46 47 47 48 49 49 48 49 48 49 49 48 48 48 48 49 48 48 47 47 47 47 48 47
37 32 34 34 37 36 37 41 41 38 39 40 41 41 41 41 42 43 45 48 47 47 47 45 45 43 39 41 39 39 37 41 37 35 39 37 34 32 33 32 33 34 40 43 42 44 44 47 48 46 46 46 45 43 44 43 42 41 40 40 40 41 42 43 43 44 45 45 46 46 47 47 46 46 46 46 46 47 47 47 48 48 48 48 48 48 48
36 36 36 34 37 38 40 41 39 38 38 39 39 39 40 40 41 42 45 46 46 47 46 46 45 41 39 39 35 35 35 39 40 37 38 37 37 37 35 33 34 36 39 43 44 46 48 48 47 45 45 45 45 42 41 40 42 41 39 39 39 40 40 39 40 40 41 42 44 44 44 44 43 44 45 45 46 46 46 46 46 46 46 47 46 46 47
34 34 36 39 39 38 40 37 38 38 38 38 38 39 40 39 40 41 43 44 44 44 44 41 39 37 36 36 36 34 35 42 40 39 38 38 41 38 33 33 37 41 42 45 46 47 48 49 48 47 46 45 43 42 40 39 39 39 38 38 38 38 38 38 39 40 41 41 42 46 43 44 44 44 45 45 45 44 43 44 45 44 43 43 43 43 43
34 34 37 40 41 41 40 39 39 39 39 39 39 39 39 38 39 41 43 44 41 40 39 41 39 37 36 36 38 41 42 39 37 39 37 40 43 38 37 39 41 42 44 44 44 46 47 47 47 47 46 46 45 42 42 41 39 38 38 38 38 38 38 38 39 39 40 40 41 42 43 43 44 45 46 45 44 44 43 42 43 42 42 41 41 41 41